Regional Weather Roundup
Issued by NWS Midland/Odessa, TX

Skip options and go directly to product.
Home | Oldest Version | Previous Version | Current Version | All | Text Only | Save Text | Print | Product List | Glossary Off

Skip product version selection by date and time.   

892
ASUS44 KMAF 010810
RWRMAF
MIDLAND AREA WEATHER ROUNDUP
NATIONAL WEATHER SERVICE MIDLAND TX
300 AM CDT FRI AUG 01 2014

...IN SOUTHWEST TEXAS AND SOUTHEAST NEW MEXICO...

CITY           SKY/WX    TMP DP  RH WIND       PRES   REMARKS
ALPINE         MOCLDY    68  59  73 CALM      30.24S
ANDREWS        FAIR      70  59  68 E9        30.15S
ARTESIA        CLOUDY    70  66  88 N7        30.16S
BIG SPRING     MOCLDY    72  61  70 NE8       30.15F
CARLSBAD       CLOUDY    73  65  75 NE5       30.12F
DRYDEN           N/A     83  62  49 NE13      30.03F
FORT STOCKTON  CLOUDY    75  58  55 E10       30.12S
GUAD PASS      CLOUDY    66  57  72 NE23        N/A
HOBBS          MOCLDY    70  57  64 E8        30.19R
MARFA          PTCLDY    66  57  72 NE7       30.22F
MIDLAND AIRPK  CLOUDY    73  61  68 E8        30.14S
MIDLAND INTL   CLOUDY    73  61  65 E15       30.13R
ODESSA         CLOUDY    73  60  63 E14       30.14S
PECOS          CLOUDY    76  58  52 E7        30.09S
PRESIDIO       FAIR      81  61  50 N8        30.05S
SEMINOLE       MOCLDY    69  58  67 E9        30.17S
SNYDER         PTCLDY    67  62  83 NE5       30.13F
WINK           CLOUDY    77  59  53 E7        30.09S
$$
...OTHER STATIONS IN TEXAS...

CITY           SKY/WX    TMP DP  RH WIND       PRES   REMARKS
ABILENE        PTCLDY    69  63  81 N3        30.09F
AMARILLO       PTCLDY    64  55  72 S7        30.20S
AUSTIN         CLOUDY    77  65  66 N10       29.99F
BROWNSVILLE    CLEAR     80  76  87 S9        29.92F
CORPUS CHRISTI MOCLDY    80  76  87 S9        29.92F
DALLAS FTW     CLOUDY    71  66  84 N10       30.01F
DEL RIO        PTCLDY    82  67  60 NE9       29.96R
EL PASO        CLOUDY    72  63  73 S3        30.16R
HOUSTON INT    CLOUDY    75  74  96 SW8       29.94F
LUBBOCK        CLOUDY    65  58  78 SE6       30.17F
SAN ANGELO     CLEAR     69  61  75 SE3       30.09S
SAN ANTONIO    CLOUDY    81  67  62 NE12      30.00S
WACO           CLOUDY    72  65  78 N6        30.00F
WICHITA FALLS  NOT AVBL
$$
...OTHER LOCATIONS IN NEW MEXICO...

CITY           SKY/WX    TMP DP  RH WIND       PRES   REMARKS
ALAMAGORDO     TSTM      64  64 100 NW9       30.20S
ALBUQUERQUE    MOCLDY    66  55  67 N7        30.28S
CANNON AFB     CLOUDY    64  54  70 E8        30.23F
CLOVIS         NOT AVBL
HOLLOMAN AFB   TSTM      64  64 100 N7        30.19F FOG
ROSWELL        CLOUDY    70  62  76 NW20      30.19R
RUIDOSO        LGT RAIN  55  55 100 NW8       30.39F
SANTA FE       NOT AVBL
TRUTH OR CONSE CLOUDY    64  60  87 NE6       30.21F
TUCUMCARI      CLOUDY    70  55  59 E3        30.21F
$$

USA.gov is the U.S. government's official web portal to all federal, state and local government web resources and services.